Grand Etang, Nova Scotia

4:39 PM AST on January 21, 2018 (GMT -0400)
Grand Etang

Weather History for CWZQ - October, 2012

Change the Weather History Date:

Tuesday, October 2, 2012

  Actual Average Record
Temperature  
Mean Temperature 58 °F -  
Max Temperature 60 °F - - ()
Min Temperature 55 °F - - ()
Degree Days  
Heating Degree Days 8    
Growing Degree Days 8 (Base 50)    
Moisture  
Dew Point 55 °F    
Average Humidity 86    
Maximum Humidity 92    
Minimum Humidity 82    
Precipitation  
Precipitation 0.00 in - - ()
Sea Level Pressure  
Sea Level Pressure 29.77 in    
Wind  
Wind Speed 21 mph ()    
Max Wind Speed 29 mph    
Max Gust Speed 36 mph    
T = Trace of Precipitation, MM = Missing Value Source: Averaged Metar Reports

Daily Weather History Graph

Daily Weather History Graph

Search for Another Location

Airport or City:

Trip Planner

Search our weather history database for the weather conditions in past years. The results will help you decide how hot, cold, wet, or windy it might be!

Date:

Astronomy

Oct. 02, 2012 Rise Set
Actual Time 7:04 AM ADT 6:41 PM ADT
Civil Twilight 6:34 AM ADT 7:11 PM ADT
Nautical Twilight 5:59 AM ADT 7:46 PM ADT
Astronomical Twilight 5:24 AM ADT 8:21 PM ADT
Moon 7:38 PM ADT (10/2) 9:39 AM ADT (10/2)
Length of Visible Light 12h 36m
Length of Day
11h 36m
Waning Gibbous, 94% of the Moon is Illuminated
Oct 2
Waning Gibbous
Oct 8
Last Quarter
Oct 15
New
Oct 22
First Quarter
Oct 29
Full

Hourly Weather History & Observations

Time (ADT) Temp. Dew Point Humidity Pressure Visibility Wind Dir Wind Speed Gust Speed Precip Events Conditions
12:00 AM 59.5 °F 55.4 °F 86% 29.65 in - SW 27.6 mph - N/A   Unknown
12:20 AM 58.8 °F 54.7 °F 86% - - SW 27.6 mph 33.4 mph N/A   Unknown
12:40 AM 58.8 °F 54.9 °F 87% - - WSW 24.2 mph - N/A   Unknown
1:00 AM 58.8 °F 54.1 °F 84% 29.65 in - WSW 27.6 mph 34.5 mph N/A   Unknown
1:20 AM 57.4 °F 54.7 °F 91% - - WSW 28.8 mph 35.7 mph N/A   Unknown
1:40 AM 57.9 °F 55.0 °F 90% - - WSW 24.2 mph - N/A   Unknown
2:00 AM 57.9 °F 54.9 °F 90% 29.67 in - WSW 28.8 mph - N/A   Unknown
2:20 AM 57.6 °F 54.0 °F 88% - - WSW 23.0 mph - N/A   Unknown
2:40 AM 57.9 °F 53.6 °F 86% - - WSW 24.2 mph 31.1 mph N/A   Unknown
3:00 AM 57.7 °F 53.4 °F 85% 29.68 in - WSW 25.3 mph - N/A   Unknown
3:20 AM 57.6 °F 53.4 °F 86% - - WSW 23.0 mph - N/A   Unknown
3:40 AM 57.6 °F 53.4 °F 86% - - WSW 24.2 mph - N/A   Unknown
4:00 AM 57.7 °F 53.1 °F 84% 29.69 in - WSW 25.3 mph - N/A   Unknown
4:20 AM 57.9 °F 53.1 °F 84% - - WSW 25.3 mph - N/A   Unknown
4:40 AM 57.9 °F 52.7 °F 83% - - WSW 24.2 mph - N/A   Unknown
5:00 AM 58.3 °F 53.6 °F 84% 29.70 in - WSW 26.5 mph - N/A   Unknown
5:20 AM 57.7 °F 52.9 °F 84% - - WSW 25.3 mph - N/A   Unknown
5:40 AM 57.9 °F 52.7 °F 83% - - WSW 24.2 mph - N/A   Unknown
6:00 AM 58.1 °F 53.2 °F 84% 29.72 in - WSW 26.5 mph - N/A   Unknown
6:20 AM 58.3 °F 53.4 °F 84% - - WSW 24.2 mph - N/A   Unknown
6:40 AM 57.9 °F 53.4 °F 85% - - WSW 25.3 mph - N/A   Unknown
7:00 AM 57.9 °F 53.2 °F 84% 29.73 in - WSW 26.5 mph - N/A   Unknown
7:20 AM 57.7 °F 53.6 °F 86% - - WSW 21.9 mph - N/A   Unknown
7:40 AM 57.7 °F 53.6 °F 86% - - WSW 21.9 mph - N/A   Unknown
8:00 AM 57.4 °F 53.2 °F 86% 29.74 in - WSW 21.9 mph - N/A   Unknown
8:20 AM 57.0 °F 53.4 °F 88% - - WSW 21.9 mph - N/A   Unknown
8:40 AM 57.2 °F 53.1 °F 86% - - SW 16.1 mph - N/A   Unknown
9:00 AM 58.1 °F 53.6 °F 85% 29.76 in - SW 21.9 mph - N/A   Unknown
9:20 AM 58.5 °F 54.3 °F 86% - - SW 16.1 mph - N/A   Unknown
9:40 AM 58.8 °F 54.9 °F 87% - - SW 20.7 mph - N/A   Unknown
10:00 AM 59.4 °F 55.0 °F 86% 29.77 in - WSW 24.2 mph - N/A   Unknown
10:20 AM 59.2 °F 55.4 °F 87% - - WSW 23.0 mph - N/A   Unknown
10:40 AM 59.4 °F 54.9 °F 85% - - WSW 25.3 mph - N/A   Unknown
11:00 AM 58.3 °F 54.3 °F 87% 29.78 in - WSW 27.6 mph - N/A   Unknown
11:20 AM 57.7 °F 53.8 °F 87% - - West 23.0 mph - N/A   Unknown
11:40 AM 58.1 °F 53.8 °F 86% - - West 21.9 mph 27.6 mph N/A   Unknown
12:00 PM 58.6 °F 53.8 °F 84% 29.79 in - WSW 27.6 mph - N/A   Unknown
12:20 PM 58.3 °F 53.8 °F 85% - - WSW 18.4 mph - N/A   Unknown
12:40 PM 58.5 °F 54.7 °F 87% - - WSW 18.4 mph - N/A   Unknown
1:00 PM 58.3 °F 54.9 °F 88% 29.79 in - WSW 19.6 mph - N/A   Unknown
1:20 PM 58.5 °F 55.0 °F 88% - - WSW 18.4 mph - N/A   Unknown
1:40 PM 58.5 °F 55.0 °F 88% - - SW 16.1 mph - N/A   Unknown
2:00 PM 58.6 °F 54.9 °F 87% 29.79 in - WSW 19.6 mph - N/A   Unknown
2:40 PM 59.2 °F 55.4 °F 87% - - West 20.7 mph - N/A   Unknown
3:00 PM 59.2 °F 55.8 °F 88% 29.79 in - West 21.9 mph - N/A   Unknown
3:20 PM 59.5 °F 55.4 °F 86% - - West 20.7 mph - N/A   Unknown
3:40 PM 59.7 °F 55.4 °F 86% - - West 19.6 mph - N/A   Unknown
4:00 PM 59.5 °F 55.0 °F 85% 29.80 in - West 21.9 mph - N/A   Unknown
4:20 PM 59.5 °F 55.0 °F 85% - - West 21.9 mph - N/A   Unknown
4:40 PM 59.5 °F 55.2 °F 86% - - West 21.9 mph - N/A   Unknown
5:00 PM 59.5 °F 54.7 °F 84% 29.81 in - West 23.0 mph - N/A   Unknown
5:20 PM 59.7 °F 55.2 °F 85% - - West 21.9 mph - N/A   Unknown
5:40 PM 59.7 °F 55.4 °F 86% - - WNW 19.6 mph - N/A   Unknown
6:00 PM 59.9 °F 54.9 °F 83% 29.83 in - West 23.0 mph - N/A   Unknown
6:20 PM 59.9 °F 54.3 °F 82% - - West 20.7 mph - N/A   Unknown
6:40 PM 60.1 °F 55.0 °F 83% - - West 20.7 mph - N/A   Unknown
7:00 PM 60.3 °F 55.2 °F 83% 29.84 in - West 23.0 mph - N/A   Unknown
7:20 PM 60.3 °F 55.4 °F 84% - - West 16.1 mph - N/A   Unknown
7:40 PM 60.3 °F 55.8 °F 85% - - West 15.0 mph - N/A   Unknown
8:00 PM 60.4 °F 56.5 °F 87% 29.86 in - West 21.9 mph - N/A   Unknown
8:20 PM 60.3 °F 56.3 °F 87% - - West 13.8 mph - N/A   Unknown
8:40 PM 60.1 °F 56.1 °F 87% - - West 12.7 mph - N/A   Unknown
9:00 PM 60.1 °F 56.3 °F 87% 29.86 in - West 16.1 mph - N/A   Unknown
9:20 PM 59.9 °F 56.7 °F 89% - - WSW 10.4 mph - N/A   Unknown
9:40 PM 60.1 °F 57.0 °F 90% - - WSW 8.1 mph - N/A   Unknown
10:00 PM 59.9 °F 56.8 °F 90% 29.86 in - WSW 10.4 mph - N/A   Unknown
10:20 PM 57.0 °F 54.5 °F 91% - - SSE 3.5 mph - N/A   Unknown
10:40 PM 56.5 °F 54.1 °F 92% - - South 4.6 mph - N/A   Unknown
11:00 PM 55.9 °F 53.6 °F 92% 29.86 in - SSE 5.8 mph - N/A   Unknown
11:20 PM 56.5 °F 54.1 °F 92% - - SSE 5.8 mph - N/A   Unknown
11:40 PM 55.9 °F 53.8 °F 92% - - SSE 6.9 mph - N/A   Unknown